KI1U Weather Reports


Display with metric or nautical units.
time (UTC)temp
F
wind
direction
speed
MPH
gust
MPH
rain 1hr
in
rain 24hr
in
rain mn
in
humidity
%
barometer
mb
20260503044529 47 275 0.0 2.0 0.00 0.05 0.00 55 1010.1
20260503043020 47 297 0.0 1.0 0.00 0.05 0.00 57 1010.6
20260503041524 48 264 0.0 4.0 0.00 0.05 0.00 57 1010.6
20260503040029 47 277 1.0 5.0 0.00 0.05 0.00 60 1010.5
20260503034528 47 231 1.0 4.0 0.00 0.05 0.05 77 1010.8
20260503033019 47 264 0.0 1.0 0.00 0.05 0.05 89 1010.8
20260503031521 47 279 0.0 0.0 0.00 0.05 0.05 90 1010.8
20260503030024 47 279 0.0 1.0 0.00 0.05 0.05 89 1010.6
20260503024528 47 215 0.0 0.0 0.00 0.05 0.05 89 1010.6
20260503023027 47 215 0.0 0.0 0.00 0.05 0.05 88 1010.7
20260503021519 47 215 0.0 0.0 0.00 0.05 0.05 88 1010.8
20260503020020 47 215 0.0 0.0 0.00 0.05 0.05 87 1010.8
20260503014526 48 215 0.0 0.0 0.00 0.05 0.05 87 1010.9
20260503013036 48 215 0.0 0.0 0.00 0.05 0.05 87 1010.9
20260503011533 48 215 0.0 0.0 0.00 0.05 0.05 86 1011.1
20260503010019 49 215 0.0 0.0 0.00 0.05 0.05 86 1011.0
20260503004522 49 215 0.0 0.0 0.00 0.05 0.05 85 1010.9
20260503003024 49 215 0.0 0.0 0.00 0.05 0.05 85 1010.7
20260503001528 49 215 0.0 0.0 0.00 0.05 0.05 84 1010.6
20260503000028 50 215 0.0 0.0 0.00 0.05 0.05 84 1010.5
20260502234520 50 215 0.0 0.0 0.00 0.05 0.05 84 1010.6
20260502233024 50 215 0.0 0.0 0.00 0.05 0.05 83 1010.6
20260502231527 50 175 0.0 0.0 0.00 0.05 0.05 82 1010.7
20260502230018 51 175 0.0 0.0 0.00 0.05 0.05 82 1010.8
20260502224516 51 175 0.0 0.0 0.00 0.05 0.05 81 1010.7
20260502223020 51 203 0.0 0.0 0.00 0.05 0.05 81 1010.6
20260502221523 51 165 0.0 1.0 0.00 0.05 0.05 81 1010.6
20260502220010 51 235 0.0 1.0 0.00 0.05 0.05 81 1010.5
20260502214515 51 124 0.0 1.0 0.00 0.05 0.05 81 1010.7
20260502213027 51 119 0.0 2.0 0.00 0.05 0.05 81 1010.6
20260502211527 51 77 0.0 3.0 0.00 0.05 0.05 81 1010.6
20260502210031 51 128 0.0 1.0 0.00 0.05 0.05 81 1010.6
20260502204510 51 277 0.0 2.0 0.00 0.05 0.05 81 1010.6
20260502203015 51 129 0.0 2.0 0.00 0.05 0.05 81 1010.6
20260502201522 51 213 0.0 2.0 0.00 0.05 0.05 82 1010.8
20260502200022 51 105 0.0 4.0 0.00 0.05 0.05 82 1010.9
20260502194526 50 229 0.0 3.0 0.00 0.05 0.05 82 1011.1
20260502193012 50 158 1.0 5.0 0.00 0.05 0.05 84 1011.2
20260502191516 50 136 1.0 4.0 0.00 0.05 0.05 84 1011.3
20260502190030 50 112 0.0 5.0 0.00 0.05 0.05 84 1011.5
20260502184525 50 146 0.0 6.0 0.01 0.05 0.05 85 1011.6
20260502183028 50 121 1.0 5.0 0.01 0.05 0.05 85 1011.8
20260502181514 50 167 0.0 2.0 0.02 0.05 0.05 85 1011.8
20260502163030 52 124 0.0 4.0 0.00 0.00 0.00 73 1012.0
20260502161525 53 127 0.0 5.0 0.00 0.00 0.00 74 1012.0
20260502151527 55 243 0.0 3.0 0.00 0.00 0.00 67 1012.1
20260502123030 49 145 0.0 2.0 0.00 0.00 0.00 80 1013.0
20260502121531 48 72 0.0 1.0 0.00 0.00 0.00 81 1013.3
20260502114534 47 208 0.0 2.0 0.00 0.00 0.00 81 1012.8
20260502113029 47 205 0.0 2.0 0.00 0.00 0.00 81 1012.7
20260502111526 46 236 0.0 1.0 0.00 0.00 0.00 82 1012.6
20260502110016 46 236 0.0 1.0 0.00 0.00 0.00 81 1012.4
20260502104503 46 180 0.0 1.0 0.00 0.00 0.00 81 1012.5
20260502103007 46 117 0.0 2.0 0.00 0.00 0.00 81 1012.1
20260502101513 45 240 0.0 0.0 0.00 0.00 0.00 81 1012.0
20260502091508 44 207 0.0 0.0 0.00 0.00 0.00 80 1011.8
20260502071519 45 234 0.0 0.0 0.00 0.00 0.00 73 1011.8
20260502070005 46 233 0.0 0.0 0.00 0.00 0.00 71 1011.8
20260502064521 47 233 0.0 0.0 0.00 0.00 0.00 69 1011.9
20260502063021 48 233 0.0 0.0 0.00 0.00 0.00 67 1012.1
20260502061519 49 203 0.0 1.0 0.00 0.00 0.00 66 1012.2
20260502060030 49 214 0.0 3.0 0.00 0.00 0.00 65 1012.3
20260502054509 49 131 0.0 3.0 0.00 0.00 0.00 64 1012.2
20260502053012 49 197 0.0 2.0 0.00 0.00 0.00 63 1012.4
20260502051516 49 51 0.0 2.0 0.00 0.00 0.00 64 1012.5
20260502050022 49 24 0.0 2.0 0.00 0.00 0.00 64 1012.3